DW9936 Weather Reports


time (UTC)temp
C
wind
direction
speed
KPH
gust
KPH
rain 1hr
cm
rain 24hr
cm
rain mn
cm
humidity
%
barometer
mb
20260507164524 19 171 0.0 4.8 0.00 0.00 0.00 46 1011.6
20260507163023 20 331 1.6 8.0 0.00 0.00 0.00 45 1011.6
20260507161521 20 182 1.6 8.0 0.00 0.00 0.00 44 1011.5
20260507160020 20 159 0.0 9.7 0.00 0.00 0.00 43 1011.5
20260507154521 20 360 0.0 8.0 0.00 0.00 0.00 43 1011.5
20260507153024 20 30 0.0 6.4 0.00 0.00 0.00 42 1011.4
20260507151518 20 300 0.0 8.0 0.00 0.00 0.00 41 1011.2
20260507150018 21 300 0.0 6.4 0.00 0.00 0.00 41 1011.2
20260507144519 21 342 0.0 8.0 0.00 0.00 0.00 39 1011.1
20260507143018 22 281 0.0 14.5 0.00 0.00 0.00 37 1011.0
20260507141516 23 140 0.0 4.8 0.00 0.00 0.00 36 1010.8
20260507140032 23 315 1.6 14.5 0.00 0.00 0.00 36 1010.8
20260507134516 23 139 3.2 14.5 0.00 0.00 0.00 36 1010.9
20260507133015 22 355 1.6 14.5 0.00 0.00 0.00 37 1011.0
20260507131522 22 318 3.2 12.9 0.00 0.00 0.00 38 1011.2
20260507130014 22 191 1.6 14.5 0.00 0.00 0.00 39 1011.2
20260507124517 23 316 1.6 9.7 0.00 0.00 0.00 36 1011.2
20260507123010 23 38 0.0 16.1 0.00 0.00 0.00 36 1011.2
20260507121509 23 136 0.0 4.8 0.00 0.00 0.00 38 1011.4
20260507120008 22 278 0.0 8.0 0.00 0.00 0.00 37 1011.4
20260507114505 22 140 0.0 17.7 0.00 0.00 0.00 38 1011.7
20260507113005 22 182 0.0 12.9 0.00 0.00 0.00 41 1011.7
20260507111501 21 200 1.6 9.7 0.00 0.00 0.00 41 1011.9
20260507110059 21 20 3.2 14.5 0.00 0.00 0.00 43 1011.9
20260507104606 20 208 0.0 14.5 0.00 0.00 0.00 47 1012.1
20260507103054 20 192 1.6 14.5 0.00 0.00 0.00 46 1012.2
20260507101555 20 23 0.0 6.4 0.00 0.00 0.00 47 1012.1
20260507100056 20 328 0.0 6.4 0.00 0.00 0.00 50 1012.3
20260507094550 19 236 1.6 4.8 0.00 0.00 0.00 49 1012.3
20260507093048 18 214 1.6 6.4 0.00 0.00 0.00 51 1012.3
20260507091549 18 254 0.0 6.4 0.00 0.00 0.00 50 1012.2
20260507090046 18 253 0.0 8.0 0.00 0.00 0.00 49 1012.1
20260507084555 18 219 1.6 8.0 0.00 0.00 0.00 48 1012.0
20260507083042 19 360 0.0 6.4 0.00 0.00 0.00 52 1011.9
20260507081539 18 192 0.0 9.7 0.00 0.00 0.00 53 1011.9
20260507080036 17 321 0.0 4.8 0.00 0.00 0.00 55 1011.8
20260507074535 17 336 0.0 8.0 0.00 0.00 0.00 56 1011.7
20260507073033 17 191 0.0 4.8 0.00 0.00 0.00 57 1011.7
20260507071536 16 178 0.0 11.3 0.00 0.00 0.00 58 1011.6
20260507070030 16 313 0.0 4.8 0.00 0.00 0.00 58 1011.5
20260507064533 16 345 0.0 8.0 0.00 0.00 0.00 59 1011.5
20260507063029 16 239 0.0 6.4 0.00 0.00 0.00 61 1011.4
20260507061535 15 216 0.0 6.4 0.00 0.00 0.00 62 1011.4
20260507060035 15 252 0.0 9.7 0.00 0.00 0.00 65 1011.3
20260507054535 14 241 0.0 4.8 0.00 0.00 0.00 68 1011.2
20260507053022 13 336 0.0 3.2 0.00 0.00 0.00 71 1011.0
20260507051519 13 310 0.0 4.8 0.00 0.00 0.00 71 1011.0
20260507050036 13 275 0.0 0.0 0.00 0.00 0.00 73 1010.8
20260507044520 13 219 0.0 1.6 0.00 0.00 0.00 74 1010.7
20260507043010 13 214 0.0 3.2 0.00 0.00 0.00 74 1010.5
20260507041508 13 281 0.0 1.6 0.00 0.00 0.00 74 1010.2
20260507040006 13 277 0.0 0.0 0.00 0.00 0.00 74 1010.1
20260507034505 13 219 0.0 1.6 0.00 0.00 0.00 73 1010.0
20260507033001 13 232 0.0 4.8 0.00 0.00 0.00 73 1009.9
20260507031558 13 107 0.0 4.8 0.00 0.00 0.00 72 1009.7
20260507030056 13 216 0.0 4.8 0.00 0.00 0.00 72 1009.5
20260507024554 14 355 0.0 3.2 0.00 0.00 0.00 72 1009.4
20260507023051 14 206 0.0 1.6 0.00 0.00 0.00 72 1009.1
20260507021558 14 248 0.0 6.4 0.00 0.00 0.00 72 1009.1
20260507020048 14 277 0.0 6.4 0.00 0.00 0.00 71 1009.0
20260507014547 14 207 0.0 3.2 0.00 0.00 0.00 72 1008.8
20260507013044 15 164 0.0 8.0 0.00 0.00 0.00 71 1008.7
20260507011545 15 109 0.0 4.8 0.00 0.00 0.00 71 1008.5
20260507010045 15 182 0.0 9.7 0.00 0.00 0.00 71 1008.5
20260507004537 15 238 0.0 6.4 0.00 0.00 0.00 70 1008.4
20260507003035 16 213 0.0 8.0 0.00 0.00 0.00 69 1008.3
20260507001534 16 282 0.0 3.2 0.00 0.00 0.00 68 1008.2
20260507000034 16 332 0.0 0.0 0.00 0.00 0.00 67 1007.8
20260506234527 16 332 0.0 0.0 0.00 0.00 0.00 68 1007.7
20260506233027 16 332 0.0 6.4 0.00 0.00 0.00 67 1007.5
20260506231527 17 336 0.0 1.6 0.00 0.00 0.00 68 1007.5
20260506230021 17 227 1.6 8.0 0.00 0.00 0.00 67 1007.3
20260506224517 17 351 0.0 3.2 0.00 0.00 0.00 64 1006.7
20260506223017 17 309 0.0 8.0 0.00 0.00 0.00 62 1006.7
20260506221513 17 242 0.0 3.2 0.00 0.00 0.00 59 1006.4
20260506220017 18 315 0.0 6.4 0.00 0.00 0.00 58 1005.9
20260506214509 18 313 0.0 9.7 0.00 0.00 0.00 57 1005.5
20260506213007 18 334 1.6 14.5 0.00 0.00 0.00 56 1005.2
20260506211506 19 355 3.2 17.7 0.00 0.00 0.00 54 1004.8
20260506210006 19 279 1.6 8.0 0.00 0.00 0.00 50 1004.5
20260506204505 19 207 0.0 1.6 0.00 0.00 0.00 51 1004.2
20260506203016 20 311 0.0 0.0 0.00 0.00 0.00 51 1004.0
20260506201508 20 317 0.0 0.0 0.00 0.00 0.00 50 1003.8
20260506200005 20 317 0.0 0.0 0.00 0.00 0.00 50 1003.6
20260506194505 20 237 0.0 0.0 0.00 0.00 0.00 49 1003.4
20260506193004 21 232 0.0 1.6 0.00 0.00 0.00 48 1003.1
20260506191506 21 111 0.0 1.6 0.00 0.00 0.00 46 1002.9
20260506190006 21 104 0.0 4.8 0.00 0.00 0.00 45 1002.5
20260506184502 22 166 0.0 3.2 0.00 0.00 0.00 45 1002.4
20260506183002 22 254 0.0 4.8 0.00 0.00 0.00 44 1002.3
20260506181502 22 5 0.0 4.8 0.00 0.00 0.00 43 1002.0
20260506180003 23 82 0.0 3.2 0.00 0.00 0.00 42 1001.7
20260506174604 23 271 0.0 6.4 0.00 0.00 0.00 41 1001.7
20260506173115 23 211 0.0 6.4 0.00 0.00 0.00 39 1001.5
20260506171601 24 250 1.6 11.3 0.00 0.00 0.00 38 1001.6
20260506170100 25 178 0.0 11.3 0.00 0.00 0.00 36 1001.6